Location: Durham
(54.7770°N, 1.5720°W)
Time: 13:08:03
(UTC+01:00)

ISS - Visible Passes

Search period start: 28 March 2017 00:00
Search period end: 07 April 2017 00:00
Orbit: 399 x 409 km, 51.6° (Epoch: 28 March)

Date Brightness Start Highest point End Pass type
(mag) Time Alt. Az. Time Alt. Az. Time Alt. Az.
28 Mar -1.5 21:34:00 10° SSW 21:34:38 13° SSW 21:34:38 13° SSW visible
29 Mar -2.0 20:42:25 10° S 20:44:25 15° SSE 20:45:06 14° SE visible
29 Mar -1.3 22:17:13 10° SW 22:17:47 14° SW 22:17:47 14° SW visible
30 Mar -2.9 21:25:07 10° SW 21:28:01 31° SSE 21:28:01 31° SSE visible
31 Mar -2.5 20:33:09 10° SSW 20:35:49 23° SSE 20:38:05 12° ESE visible
31 Mar -2.6 22:08:42 10° WSW 22:10:45 31° SW 22:10:45 31° SW visible
01 Apr -3.3 21:16:27 10° WSW 21:19:33 41° SSE 21:20:39 29° ESE visible
01 Apr -1.2 22:52:36 10° W 22:53:18 15° WSW 22:53:18 15° WSW visible
02 Apr -2.9 20:24:17 10° SW 20:27:15 33° SSE 20:30:15 10° E visible
02 Apr -3.4 22:00:14 10° WSW 22:03:06 46° SSW 22:03:06 46° SSW visible
03 Apr -3.5 21:07:53 10° WSW 21:11:04 47° S 21:12:50 22° ESE visible
03 Apr -1.7 22:44:11 10° W 22:45:29 20° WSW 22:45:29 20° WSW visible
04 Apr -3.4 21:51:46 10° W 21:54:54 43° S 21:55:08 43° S visible
05 Apr -3.4 20:59:22 10° WSW 21:02:32 48° S 21:04:45 17° ESE visible
05 Apr -1.8 22:35:48 10° W 22:37:24 21° WSW 22:37:24 21° WSW visible
06 Apr -2.9 21:43:17 10° W 21:46:18 34° SSW 21:46:59 30° S visible
